[[{"header":{"parameterUnit":"m.s-1","parameterCategory":2,"la1":30.2991,"la2":30.254,"lo1":-89.0895,"lo2":-89.0444,"dy":0.0017,"dx":0.0017,"nx":28,"ny":28,"refTime":"2025-08-15T09:00:00:Z","depth":"0","parameterNumber":2,"parameterNumberName":"U-component_of_CURRENTS"},"data":[0,0,0,0,0,0,0,0,0,0,0,0,0,0,0,0,0,0,0,0,0,0,0,0,0,0,0,0,0,0,0,0,0,0,0,0,0,0,0,0,0,0,0,0,0,0,0,0,0,0,0,0,0,0,0,0,0,0,-0.2548,-0.2548,0,-0.2538,-0.2538,-0.2538,-0.246,-0.2458,-0.2457,-0.2455,-0.2394,-0.2394,-0.2394,0,0,0,0,0,0,0,0,0,0,0,0,0,-0.2497,-0.2498,-0.2548,-0.2548,-0.2549,-0.2539,-0.2538,-0.2538,-0.246,-0.2458,-0.2456,-0.2454,-0.2394,-0.2394,-0.2394,0,0,0,0,0,0,0,0,0,0,0,0,0,-0.2504,-0.2498,-0.2548,-0.2511,-0.2508,-0.2539,-0.2538,-0.2538,-0.2461,-0.2458,-0.2456,-0.2453,-0.2394,-0.2394,-0.2394,-0.2443,0,0,-0.2394,-0.2394,0,0,0,0,0,0,0,0,-0.2503,-0.2505,-0.2516,-0.2514,-0.251,-0.25,-0.2498,-0.2504,-0.2461,-0.2475,-0.2455,-0.2452,-0.2429,-0.2426,-0.2426,-0.244,-0.2437,-0.2394,-0.2394,-0.2393,-0.2393,0,0,0,0,0,0,0,-0.2503,-0.2505,-0.2541,-0.2517,-0.2513,-0.2494,-0.2492,-0.2499,-0.2463,-0.2474,-0.2469,-0.2473,-0.2426,-0.2426,-0.2424,-0.2437,-0.2394,-0.2393,-0.2393,-0.2393,-0.2457,-0.2459,0,0,0,0,0,0,-0.2513,-0.2505,-0.2542,-0.2541,-0.2504,-0.2497,-0.2494,-0.2504,-0.2464,-0.2457,-0.2476,-0.247,-0.2428,-0.2424,-0.2421,-0.2454,-0.2393,-0.2393,-0.2393,-0.2456,-0.2458,-0.246,0,0,0,0,0,0,-0.2512,-0.2517,-0.2542,-0.2525,-0.2527,-0.2501,-0.2512,-0.2505,-0.2499,-0.2466,-0.2456,-0.2476,-0.2426,-0.2421,-0.2424,-0.2451,-0.2393,-0.2393,-0.2454,-0.2456,-0.2459,-0.2533,0,0,0,0,0,0,-0.2511,-0.2517,-0.2525,-0.2526,-0.2528,-0.2566,-0.2514,-0.2507,-0.2507,-0.2499,-0.2464,-0.2456,-0.2423,-0.2424,-0.2424,-0.245,-0.2393,-0.2451,-0.2455,-0.2458,-0.2528,-0.2538,-0.2546,0,0,0,0,0,-0.2509,-0.2531,-0.2525,-0.253,-0.2541,-0.2568,-0.2568,-0.2538,-0.251,-0.2521,-0.249,-0.2456,-0.2445,-0.2426,-0.2425,-0.2451,-0.245,-0.2454,-0.2458,-0.2525,-0.2536,-0.2546,0,0,0,0,0,0,-0.2512,-0.2526,-0.2519,-0.2543,-0.2559,-0.2556,-0.2561,-0.255,-0.2537,-0.2525,-0.2481,-0.2472,-0.2487,-0.2467,-0.2447,-0.2481,-0.2443,-0.2447,-0.2494,-0.2505,-0.2513,-0.2514,-0.2393,0,0,0,0,0,-0.2522,-0.2535,-0.2553,-0.2571,-0.2582,-0.2576,-0.2582,-0.2573,-0.2565,-0.2555,-0.2527,-0.2507,-0.2509,-0.2501,-0.2497,-0.252,-0.2482,-0.2538,-0.2547,-0.2554,-0.2555,-0.2506,-0.251,-0.2473,-0.2473,-0.2473,0,0,-0.2524,-0.2536,-0.2541,-0.2572,-0.2576,-0.261,-0.2572,-0.2594,-0.2612,-0.2555,-0.2557,-0.2541,-0.2524,-0.2542,-0.2547,-0.2522,-0.2552,-0.2559,-0.2566,-0.2562,-0.2511,-0.2514,-0.2517,-0.2476,-0.2475,-0.2475,0,0,-0.2546,-0.2554,-0.2576,-0.2601,-0.2627,-0.2634,-0.2647,-0.2654,-0.2643,-0.2661,-0.2624,-0.262,-0.2617,-0.2604,-0.2601,-0.2662,-0.2605,-0.2668,-0.2706,-0.2659,-0.2661,-0.2662,-0.2644,-0.2643,-0.2666,-0.2666,-0.2666,0,-0.2545,-0.2582,-0.2588,-0.2627,-0.2648,-0.2651,-0.269,-0.2699,-0.2701,-0.2694,-0.2669,-0.2656,-0.2647,-0.266,-0.2685,-0.2681,-0.2649,-0.2664,-0.2668,-0.2668,-0.2668,-0.2649,-0.2646,-0.267,-0.267,-0.2669,-0.2669,0,-0.2586,-0.2624,-0.2644,-0.2689,-0.2718,-0.2754,-0.2778,-0.2788,-0.2776,-0.2773,-0.2773,-0.275,-0.2728,-0.2744,-0.2738,-0.2745,-0.2724,-0.2687,-0.2635,-0.2676,-0.2654,-0.265,-0.2676,-0.2674,-0.2673,-0.2672,0,0,-0.2543,-0.265,-0.2652,-0.2684,-0.2754,-0.2772,-0.2821,-0.285,-0.2848,-0.2849,-0.283,-0.2858,-0.2821,-0.2816,-0.2798,-0.2777,-0.2771,-0.2741,-0.2737,-0.2714,-0.2683,-0.2486,-0.2463,-0.2722,-0.2721,-0.2721,-0.2677,0,-0.2563,-0.2648,-0.2697,-0.2764,-0.2806,-0.284,-0.2874,-0.29,-0.2899,-0.2882,-0.2866,-0.2847,-0.2855,-0.283,-0.2819,-0.2775,-0.276,-0.2788,-0.2655,-0.2652,-0.2462,-0.245,-0.232,-0.2251,-0.2672,-0.2671,-0.2671,0,-0.257,-0.2627,-0.2707,-0.2789,-0.2805,-0.2842,-0.2869,-0.2903,-0.291,-0.2903,-0.2889,-0.2861,-0.2854,-0.2828,-0.2781,-0.2793,-0.2754,-0.2721,-0.2717,-0.2498,-0.2445,-0.2274,-0.2227,-0.222,-0.2664,-0.2665,-0.2665,0,-0.2507,-0.2621,-0.2679,-0.2712,-0.2812,-0.2827,-0.286,-0.2891,-0.2892,-0.2894,-0.2875,-0.2863,-0.2826,-0.2783,-0.2727,-0.2749,-0.2644,-0.2653,-0.2449,-0.2437,-0.2279,-0.2251,-0.2191,-0.2607,-0.2607,-0.2607,-0.2607,0,-0.2496,-0.253,-0.2648,-0.2671,-0.2698,-0.2783,-0.2785,-0.282,-0.2839,-0.2835,-0.286,-0.2838,-0.2808,-0.2744,-0.2709,-0.2543,-0.2621,-0.2443,-0.2393,-0.2303,-0.2279,-0.2225,-0.2269,-0.2605,-0.2606,-0.2606,-0.2606,0,-0.2403,-0.25,-0.2551,-0.2652,-0.2671,-0.2675,-0.2722,-0.2716,-0.2771,-0.2758,-0.2754,-0.2792,-0.2704,-0.264,-0.2557,-0.2482,-0.2302,-0.2293,-0.2196,-0.2132,-0.1895,-0.1948,-0.1829,-0.1781,-0.2058,-0.2053,-0.2048,0,-0.2362,-0.2388,-0.2489,-0.25,-0.2536,-0.2559,-0.2564,-0.2646,-0.2657,-0.2728,-0.2713,-0.2654,-0.257,-0.2365,-0.2201,-0.2028,-0.2095,-0.1837,-0.1836,-0.1836,-0.1863,-0.1935,-0.1913,-0.1699,-0.1692,-0.1686,-0.1681,0,-0.2245,-0.2286,-0.2319,-0.2356,-0.2372,-0.2395,-0.2428,-0.2432,-0.2536,-0.2533,-0.2519,-0.2456,-0.2264,-0.1992,-0.1765,-0.169,-0.1768,-0.1705,-0.1734,-0.1578,-0.1627,-0.1571,-0.1819,-0.163,-0.1635,-0.1639,-0.1641,-0.1644,-0.2115,-0.2107,-0.2155,-0.2172,-0.22,-0.2215,-0.2175,-0.2224,-0.2213,-0.2157,-0.2234,-0.1999,-0.1781,-0.141,-0.1377,-0.1202,-0.1343,-0.1172,-0.1246,-0.1327,-0.1232,-0.135,-0.1067,-0.1068,-0.107,-0.1071,-0.1073,0,-0.1937,-0.1949,-0.1962,-0.1985,-0.1957,-0.2036,-0.2058,-0.1981,-0.1907,-0.1801,-0.1682,-0.126,-0.1065,-0.0958,-0.0803,-0.0776,-0.0853,-0.0808,-0.0945,-0.095,-0.1061,-0.0992,-0.0641,-0.0642,-0.0642,-0.0642,-0.0642,-0.0642,-0.1839,-0.1783,-0.1808,-0.1725,-0.1741,-0.1652,-0.1633,-0.1539,-0.1414,-0.1071,-0.0758,-0.0554,-0.0489,-0.0594,-0.0634,-0.0644,-0.0724,-0.0666,-0.0761,-0.0913,-0.0957,-0.0999,-0.0944,-0.0588,-0.0589,-0.0609,-0.0609,-0.0609]},{"header":{"parameterUnit":"m.s-1","parameterCategory":2,"la1":30.2991,"la2":30.254,"lo1":-89.0895,"lo2":-89.0444,"dy":0.0017,"dx":0.0017,"nx":28,"ny":28,"refTime":"2025-08-15T09:00:00:Z","depth":"0","parameterNumber":3,"parameterNumberName":"V-component_of_CURRENTS"},"data":[0,0,0,0,0,0,0,0,0,0,0,0,0,0,0,0,0,0,0,0,0,0,0,0,0,0,0,0,0,0,0,0,0,0,0,0,0,0,0,0,0,0,0,0,0,0,0,0,0,0,0,0,0,0,0,0,0,0,-0.1019,-0.1019,0,-0.1023,-0.1023,-0.1023,-0.0954,-0.0952,-0.095,-0.0948,-0.0867,-0.0867,-0.0866,0,0,0,0,0,0,0,0,0,0,0,0,0,-0.0872,-0.0876,-0.1019,-0.1019,-0.1019,-0.1023,-0.1023,-0.1023,-0.0954,-0.0952,-0.095,-0.0947,-0.0867,-0.0867,-0.0866,0,0,0,0,0,0,0,0,0,0,0,0,0,-0.0912,-0.0877,-0.1019,-0.0986,-0.0983,-0.1023,-0.1023,-0.1023,-0.0954,-0.0952,-0.0949,-0.0946,-0.0868,-0.0867,-0.0866,-0.0916,0,0,-0.0864,-0.0864,0,0,0,0,0,0,0,0,-0.091,-0.0917,-0.099,-0.0988,-0.0985,-0.0985,-0.0941,-0.0983,-0.0955,-0.0964,-0.0948,-0.0945,-0.0901,-0.0898,-0.0905,-0.0912,-0.0908,-0.0864,-0.0863,-0.0863,-0.0863,0,0,0,0,0,0,0,-0.0907,-0.0916,-0.1019,-0.0991,-0.0987,-0.0943,-0.0947,-0.0949,-0.0946,-0.0963,-0.0959,-0.0961,-0.0899,-0.0906,-0.0902,-0.0907,-0.0864,-0.0863,-0.0863,-0.0863,-0.0913,-0.0915,0,0,0,0,0,0,-0.0916,-0.0915,-0.1019,-0.102,-0.0941,-0.0949,-0.0952,-0.0987,-0.0947,-0.094,-0.0963,-0.0958,-0.0908,-0.0903,-0.0899,-0.0916,-0.0863,-0.0862,-0.0862,-0.0911,-0.0913,-0.0915,0,0,0,0,0,0,-0.0914,-0.0927,-0.1019,-0.0965,-0.0973,-0.0955,-0.0994,-0.0989,-0.0985,-0.0949,-0.0938,-0.0963,-0.0906,-0.09,-0.09,-0.0913,-0.0862,-0.0861,-0.0909,-0.0912,-0.0914,-0.0976,0,0,0,0,0,0,-0.091,-0.0927,-0.0957,-0.0967,-0.0977,-0.1045,-0.0997,-0.0991,-0.0992,-0.0984,-0.0946,-0.0936,-0.0903,-0.0902,-0.09,-0.0912,-0.0861,-0.0907,-0.091,-0.0914,-0.0972,-0.098,-0.0988,0,0,0,0,0,-0.0905,-0.097,-0.0959,-0.0971,-0.102,-0.1046,-0.1048,-0.1022,-0.0994,-0.1006,-0.0978,-0.0937,-0.0921,-0.0903,-0.09,-0.0912,-0.0905,-0.0909,-0.0913,-0.0968,-0.0979,-0.0988,0,0,0,0,0,0,-0.0934,-0.097,-0.0957,-0.1033,-0.1033,-0.1034,-0.1055,-0.1031,-0.1023,-0.1012,-0.0964,-0.0955,-0.0958,-0.094,-0.0921,-0.0939,-0.0905,-0.0909,-0.0948,-0.0958,-0.0965,-0.0974,-0.086,0,0,0,0,0,-0.0954,-0.1005,-0.1015,-0.1072,-0.1079,-0.1065,-0.1072,-0.1054,-0.1047,-0.1039,-0.1012,-0.0989,-0.098,-0.097,-0.0961,-0.0979,-0.0946,-0.0985,-0.0993,-0.1,-0.1008,-0.1007,-0.1015,-0.0928,-0.0928,-0.0928,0,0,-0.0983,-0.1007,-0.1037,-0.1079,-0.1082,-0.111,-0.1063,-0.1084,-0.1094,-0.1035,-0.1046,-0.1019,-0.0993,-0.1004,-0.1004,-0.0984,-0.0999,-0.1005,-0.1011,-0.1015,-0.1012,-0.102,-0.1027,-0.0931,-0.0931,-0.093,0,0,-0.1063,-0.1086,-0.1147,-0.1151,-0.116,-0.1151,-0.1158,-0.1156,-0.114,-0.1154,-0.1108,-0.1091,-0.1086,-0.1061,-0.105,-0.1105,-0.1045,-0.1103,-0.1145,-0.1145,-0.1151,-0.1157,-0.1082,-0.1081,-0.1104,-0.1104,-0.1104,0,-0.1089,-0.1167,-0.1165,-0.1208,-0.1214,-0.1173,-0.1214,-0.1207,-0.1199,-0.1195,-0.1164,-0.1149,-0.1114,-0.112,-0.1128,-0.112,-0.1091,-0.1105,-0.1154,-0.1159,-0.1164,-0.1086,-0.1084,-0.1107,-0.1107,-0.1106,-0.1106,0,-0.12,-0.1248,-0.1284,-0.1321,-0.1328,-0.1358,-0.1337,-0.1335,-0.1306,-0.1292,-0.1287,-0.1244,-0.1228,-0.1215,-0.1184,-0.1202,-0.1157,-0.1164,-0.1124,-0.1176,-0.109,-0.1087,-0.1112,-0.1111,-0.111,-0.1109,0,0,-0.1283,-0.135,-0.1357,-0.1381,-0.1382,-0.1404,-0.1415,-0.142,-0.1437,-0.1401,-0.1414,-0.1377,-0.1339,-0.1325,-0.1278,-0.1267,-0.1246,-0.1233,-0.1231,-0.1149,-0.1196,-0.0981,-0.0955,-0.1271,-0.1272,-0.1272,-0.1106,0,-0.1358,-0.1466,-0.1467,-0.1536,-0.1578,-0.1531,-0.1548,-0.1537,-0.152,-0.1523,-0.1455,-0.1458,-0.1386,-0.1378,-0.1353,-0.1288,-0.1248,-0.1287,-0.1168,-0.1163,-0.0959,-0.0949,-0.0828,-0.0656,-0.1102,-0.1102,-0.1101,0,-0.1451,-0.1505,-0.1601,-0.1636,-0.1649,-0.1677,-0.1684,-0.1694,-0.1672,-0.1655,-0.1625,-0.158,-0.1527,-0.1478,-0.1363,-0.1395,-0.1299,-0.1236,-0.1229,-0.1008,-0.0942,-0.0687,-0.0632,-0.0516,-0.1095,-0.1095,-0.1096,0,-0.1504,-0.1588,-0.1667,-0.1679,-0.172,-0.1738,-0.1746,-0.174,-0.1753,-0.1741,-0.1743,-0.1681,-0.1631,-0.1545,-0.1345,-0.1386,-0.1196,-0.1241,-0.0943,-0.0924,-0.0785,-0.0751,-0.0596,-0.1169,-0.1169,-0.1169,-0.117,0,-0.1576,-0.1629,-0.1704,-0.1742,-0.1815,-0.1808,-0.1869,-0.1864,-0.1865,-0.1875,-0.1815,-0.1778,-0.1656,-0.151,-0.137,-0.1084,-0.1199,-0.0928,-0.0873,-0.0794,-0.0766,-0.0628,-0.0621,-0.1163,-0.1164,-0.1166,-0.1167,0,-0.1612,-0.1668,-0.1756,-0.1825,-0.1848,-0.1896,-0.194,-0.1978,-0.1966,-0.1972,-0.1965,-0.1853,-0.1626,-0.1424,-0.1229,-0.1073,-0.0733,-0.0732,-0.0588,-0.0518,-0.0162,-0.0163,0.0064,0.0174,-0.0426,-0.0419,-0.0414,0,-0.1634,-0.1694,-0.1815,-0.1869,-0.1903,-0.1969,-0.2009,-0.2026,-0.2055,-0.1986,-0.1981,-0.1772,-0.1536,-0.1105,-0.081,-0.0465,-0.043,-0.0186,-0.0249,-0.0087,-0.0053,-0.0076,-0.0006,-0.0079,-0.0072,-0.0066,-0.0061,0,-0.1644,-0.1703,-0.1775,-0.1905,-0.1977,-0.2053,-0.2105,-0.2138,-0.212,-0.2051,-0.1877,-0.1671,-0.1214,-0.0733,-0.0274,-0.0101,-0.0059,-0.0045,0.004,0.0188,0.0247,0.0363,-0.0202,-0.0005,-0.0011,-0.0015,-0.0018,-0.002,-0.1616,-0.1684,-0.1792,-0.19,-0.2002,-0.2079,-0.2085,-0.2092,-0.2038,-0.1822,-0.1702,-0.1229,-0.0666,0.0026,0.0168,0.0556,0.0421,0.0638,0.0617,0.0574,0.0705,0.033,0.0636,0.0634,0.0633,0.0631,0.063,0,-0.1537,-0.1638,-0.1764,-0.1891,-0.1981,-0.2045,-0.2093,-0.2007,-0.1852,-0.156,-0.1246,-0.0421,0.0146,0.0553,0.1055,0.1189,0.1131,0.1236,0.1161,0.1193,0.0803,0.0845,0.1309,0.1309,0.1309,0.1308,0.1308,0.1308,-0.1491,-0.1585,-0.1675,-0.1803,-0.1895,-0.1906,-0.1894,-0.1729,-0.149,-0.0884,-0.0337,0.0088,0.0687,0.1237,0.1588,0.1609,0.166,0.1688,0.1693,0.1344,0.1282,0.1223,0.1264,0.1809,0.1809,0.2097,0.21,0.2102]}],[{"header":{"parameterUnit":"m.s-1","parameterCategory":2,"la1":30.2991,"la2":30.254,"lo1":-89.0895,"lo2":-89.0444,"dy":0.0017,"dx":0.0017,"nx":28,"ny":28,"refTime":"2025-08-15T09:00:00:Z","depth":"2","parameterNumber":2,"parameterNumberName":"U-component_of_CURRENTS"},"data":[0,0,0,0,0,0,0,0,0,0,0,0,0,0,0,0,0,0,0,0,0,0,0,0,0,0,0,0,0,0,0,0,0,0,0,0,0,0,0,0,0,0,0,0,0,0,0,0,0,0,0,0,0,0,0,0,0,0,-0.2071,-0.2073,0,-0.2265,-0.2268,-0.2271,-0.239,-0.239,-0.239,-0.239,-0.2523,-0.2526,-0.253,0,0,0,0,0,0,0,0,0,0,0,0,0,-0.1959,-0.196,-0.2071,-0.2073,-0.2075,-0.2265,-0.2268,-0.2271,-0.239,-0.239,-0.239,-0.239,-0.2522,-0.2526,-0.253,0,0,0,0,0,0,0,0,0,0,0,0,0,-0.2072,-0.196,-0.2071,-0.2152,-0.2161,-0.2264,-0.2268,-0.2272,-0.239,-0.239,-0.239,-0.239,-0.252,-0.2525,-0.2531,-0.2562,0,0,-0.2547,-0.2549,0,0,0,0,0,0,0,0,-0.2065,-0.2076,-0.2138,-0.2147,-0.2156,-0.2298,-0.2277,-0.2364,-0.239,-0.231,-0.239,-0.239,-0.2437,-0.245,-0.2496,-0.2569,-0.2574,-0.2547,-0.255,-0.2553,-0.2554,0,0,0,0,0,0,0,-0.2057,-0.207,-0.2155,-0.214,-0.2151,-0.2232,-0.2247,-0.2296,-0.2375,-0.2317,-0.2325,-0.2336,-0.2443,-0.2491,-0.25,-0.2576,-0.2547,-0.2552,-0.2555,-0.2557,-0.2629,-0.2627,0,0,0,0,0,0,-0.2011,-0.2061,-0.2148,-0.216,-0.2102,-0.2232,-0.225,-0.2258,-0.2376,-0.2393,-0.2335,-0.234,-0.2482,-0.2494,-0.2505,-0.2531,-0.2553,-0.2557,-0.256,-0.263,-0.2628,-0.2627,0,0,0,0,0,0,-0.2008,-0.2017,-0.214,-0.211,-0.213,-0.2232,-0.2242,-0.2261,-0.2351,-0.239,-0.2407,-0.2407,-0.2483,-0.2497,-0.2532,-0.2537,-0.256,-0.2565,-0.2631,-0.2629,-0.2628,-0.2594,0,0,0,0,0,0,-0.2004,-0.2015,-0.2034,-0.2106,-0.213,-0.2208,-0.2241,-0.2265,-0.2351,-0.2361,-0.2456,-0.2466,-0.2484,-0.2523,-0.2537,-0.2545,-0.2569,-0.2633,-0.263,-0.2628,-0.2596,-0.2591,-0.2586,0,0,0,0,0,-0.2,-0.1997,-0.2033,-0.2045,-0.2142,-0.2208,-0.223,-0.2307,-0.2355,-0.2391,-0.2426,-0.2466,-0.2517,-0.2527,-0.2543,-0.2553,-0.2634,-0.2631,-0.2628,-0.2599,-0.2592,-0.2586,0,0,0,0,0,0,-0.1958,-0.2011,-0.2051,-0.2068,-0.2141,-0.2226,-0.2258,-0.2333,-0.2403,-0.2403,-0.2463,-0.2474,-0.2496,-0.2528,-0.2537,-0.2559,-0.2579,-0.2579,-0.255,-0.2545,-0.254,-0.2493,-0.2573,0,0,0,0,0,-0.1955,-0.1971,-0.2044,-0.2064,-0.209,-0.2193,-0.2242,-0.2294,-0.235,-0.2387,-0.2446,-0.2481,-0.2494,-0.2523,-0.2536,-0.2575,-0.2559,-0.2583,-0.2578,-0.2574,-0.2543,-0.2511,-0.25,-0.2618,-0.2618,-0.2618,0,0,-0.1954,-0.1976,-0.1996,-0.2058,-0.2115,-0.2156,-0.2225,-0.2282,-0.231,-0.2383,-0.2435,-0.2468,-0.2495,-0.2505,-0.2521,-0.2541,-0.2534,-0.257,-0.2567,-0.2537,-0.2507,-0.2496,-0.2485,-0.2616,-0.2616,-0.2616,0,0,-0.1938,-0.1967,-0.1983,-0.2021,-0.2088,-0.2144,-0.217,-0.2266,-0.2299,-0.2361,-0.2383,-0.2403,-0.2492,-0.2471,-0.2481,-0.246,-0.2497,-0.2495,-0.2455,-0.2426,-0.2415,-0.2406,-0.238,-0.2368,-0.2507,-0.2507,-0.2507,0,-0.1943,-0.1948,-0.2004,-0.2014,-0.2036,-0.2139,-0.2164,-0.2208,-0.2305,-0.2314,-0.2362,-0.2423,-0.2454,-0.2428,-0.2415,-0.2447,-0.2448,-0.2484,-0.2418,-0.2409,-0.24,-0.2375,-0.2363,-0.2505,-0.2505,-0.2506,-0.2506,0,-0.1919,-0.1942,-0.1938,-0.1984,-0.2033,-0.2048,-0.2108,-0.2151,-0.2224,-0.2276,-0.2289,-0.2319,-0.2355,-0.2373,-0.24,-0.2354,-0.238,-0.2407,-0.2435,-0.2386,-0.2363,-0.2351,-0.2502,-0.2503,-0.2504,-0.2504,0,0,-0.1886,-0.192,-0.1923,-0.1945,-0.2,-0.2042,-0.2053,-0.2101,-0.2125,-0.2189,-0.2211,-0.2216,-0.2258,-0.2264,-0.2293,-0.2274,-0.2224,-0.2327,-0.2327,-0.2302,-0.2172,-0.2109,-0.209,-0.2263,-0.2261,-0.2259,-0.2184,0,-0.1859,-0.1858,-0.1886,-0.192,-0.1937,-0.199,-0.2008,-0.2058,-0.2115,-0.2156,-0.2152,-0.2188,-0.2207,-0.2244,-0.2214,-0.224,-0.2191,-0.2241,-0.222,-0.2218,-0.2169,-0.2072,-0.1923,-0.1836,-0.2172,-0.2171,-0.2169,0,-0.1822,-0.1829,-0.1833,-0.1888,-0.19,-0.1933,-0.198,-0.2008,-0.2047,-0.2088,-0.21,-0.2142,-0.2112,-0.215,-0.2097,-0.2147,-0.2131,-0.2134,-0.2133,-0.2068,-0.2131,-0.1937,-0.1802,-0.2149,-0.2151,-0.2152,-0.2154,0,-0.1762,-0.1797,-0.1794,-0.18,-0.1873,-0.1881,-0.193,-0.1986,-0.2008,-0.2042,-0.2092,-0.2066,-0.2096,-0.205,-0.2062,-0.2094,-0.2012,-0.206,-0.1957,-0.1955,-0.1811,-0.1799,-0.1959,-0.1959,-0.1959,-0.1959,-0.1959,0,-0.1692,-0.1705,-0.1767,-0.1756,-0.1785,-0.1852,-0.1883,-0.1921,-0.1975,-0.1996,-0.2051,-0.206,-0.2081,-0.2062,-0.2034,-0.1952,-0.1977,-0.19,-0.1909,-0.1796,-0.1784,-0.2049,-0.2061,-0.1956,-0.1957,-0.1958,-0.1958,0,-0.1629,-0.1653,-0.167,-0.1728,-0.1751,-0.1778,-0.1863,-0.1879,-0.195,-0.1976,-0.199,-0.2062,-0.2031,-0.2015,-0.1967,-0.1927,-0.1851,-0.1804,-0.1671,-0.1663,-0.1821,-0.1832,-0.1674,-0.167,-0.1667,-0.1665,-0.1663,0,-0.1592,-0.1582,-0.1637,-0.1651,-0.1674,-0.1727,-0.1751,-0.1841,-0.1861,-0.1957,-0.1952,-0.1976,-0.194,-0.1857,-0.1767,-0.1651,-0.1743,-0.1482,-0.1479,-0.1755,-0.1781,-0.1796,-0.1811,-0.1287,-0.1282,-0.1278,-0.1275,0,-0.1526,-0.1541,-0.155,-0.1564,-0.1591,-0.1629,-0.1673,-0.1691,-0.178,-0.1802,-0.1827,-0.1815,-0.1762,-0.1594,-0.1479,-0.1403,-0.1493,-0.1396,-0.1687,-0.1391,-0.1385,-0.1414,-0.1441,-0.1239,-0.1242,-0.1245,-0.1247,-0.1248,-0.1479,-0.1468,-0.1463,-0.1467,-0.1499,-0.1497,-0.1483,-0.151,-0.1511,-0.1494,-0.163,-0.1544,-0.1547,-0.1266,-0.1177,-0.1108,-0.1218,-0.1176,-0.119,-0.1208,-0.1185,-0.1175,-0.0985,-0.0987,-0.0988,-0.099,-0.0991,0,-0.1421,-0.1388,-0.1367,-0.1353,-0.1319,-0.139,-0.1397,-0.1329,-0.1252,-0.1257,-0.1256,-0.113,-0.1001,-0.0985,-0.0803,-0.0785,-0.0794,-0.0769,-0.0783,-0.0818,-0.0849,-0.081,-0.0509,-0.0508,-0.0507,-0.0506,0,0,-0.1385,-0.1317,-0.1273,-0.1161,-0.1163,-0.1106,-0.1089,-0.0971,-0.093,-0.0816,-0.0769,-0.0884,-0.0917,-0.0703,-0.067,-0.0552,-0.068,-0.0517,-0.0898,-0.0946,-0.0976,-0.107,-0.1047,0,0,0,0,0]},{"header":{"parameterUnit":"m.s-1","parameterCategory":2,"la1":30.2991,"la2":30.254,"lo1":-89.0895,"lo2":-89.0444,"dy":0.0017,"dx":0.0017,"nx":28,"ny":28,"refTime":"2025-08-15T09:00:00:Z","depth":"2","parameterNumber":3,"parameterNumberName":"V-component_of_CURRENTS"},"data":[0,0,0,0,0,0,0,0,0,0,0,0,0,0,0,0,0,0,0,0,0,0,0,0,0,0,0,0,0,0,0,0,0,0,0,0,0,0,0,0,0,0,0,0,0,0,0,0,0,0,0,0,0,0,0,0,0,0,-0.0281,-0.028,0,-0.0144,-0.0142,-0.014,-0.0024,-0.0023,-0.0023,-0.0022,0.0299,0.0307,0.0315,0,0,0,0,0,0,0,0,0,0,0,0,0,-0.0357,-0.0356,-0.0281,-0.028,-0.0279,-0.0145,-0.0142,-0.0139,-0.0024,-0.0023,-0.0023,-0.0022,0.0297,0.0306,0.0316,0,0,0,0,0,0,0,0,0,0,0,0,0,-0.0275,-0.0356,-0.0281,-0.0211,-0.0204,-0.0145,-0.0142,-0.0139,-0.0024,-0.0023,-0.0022,-0.0022,0.0294,0.0305,0.0317,0.0374,0,0,0.0354,0.0359,0,0,0,0,0,0,0,0,-0.028,-0.0272,-0.0222,-0.0216,-0.0208,-0.0107,-0.0051,0.0039,-0.0024,-0.0084,-0.0022,-0.0021,0.0175,0.0197,0.0229,0.0389,0.0403,0.0355,0.0362,0.0367,0.0371,0,0,0,0,0,0,0,-0.0286,-0.0277,-0.0219,-0.0222,-0.0213,-0.0157,-0.0145,-0.0033,0.0048,-0.0079,-0.0072,-0.0069,0.0182,0.0217,0.0238,0.0408,0.0355,0.0365,0.0373,0.0377,0.0673,0.0674,0,0,0,0,0,0,-0.0324,-0.0283,-0.0224,-0.0216,-0.0251,-0.0158,-0.0143,-0.0134,0.0043,0.0067,-0.007,-0.0065,0.0196,0.0223,0.025,0.0353,0.0367,0.0379,0.0386,0.0672,0.0673,0.0674,0,0,0,0,0,0,-0.0326,-0.032,-0.0229,-0.0252,-0.0238,-0.0159,-0.0148,-0.0132,-0.0075,0.0046,0.0076,-0.003,0.0198,0.0233,0.0329,0.0366,0.0384,0.0395,0.0672,0.0673,0.0673,0.0545,0,0,0,0,0,0,-0.0328,-0.0321,-0.0317,-0.0255,-0.0238,-0.0196,-0.0149,-0.013,-0.008,-0.007,0.0091,0.012,0.0201,0.031,0.0341,0.0383,0.0404,0.0671,0.0672,0.0673,0.0549,0.0542,0.0536,0,0,0,0,0,-0.0331,-0.0338,-0.0317,-0.031,-0.0239,-0.0197,-0.0182,-0.0118,-0.0079,-0.006,0.0027,0.0116,0.0341,0.0319,0.0355,0.0402,0.067,0.0672,0.0673,0.0552,0.0543,0.0536,0,0,0,0,0,0,-0.0359,-0.0325,-0.0302,-0.0294,-0.0251,-0.0181,-0.0163,-0.0112,-0.0026,-0.0013,0.0114,0.0148,0.0241,0.0339,0.0312,0.049,0.0527,0.0535,0.0422,0.0415,0.0409,0.0353,0.0414,0,0,0,0,0,-0.037,-0.0366,-0.032,-0.031,-0.0298,-0.0225,-0.0195,-0.0154,-0.0081,-0.0041,0.0068,0.0184,0.0274,0.0353,0.044,0.0549,0.0586,0.0607,0.06,0.0594,0.0574,0.0617,0.0611,0.0678,0.0678,0.0678,0,0,-0.0377,-0.0359,-0.0354,-0.0316,-0.0278,-0.0255,-0.0202,-0.0168,-0.0137,-0.0017,0.0069,0.0155,0.0288,0.0379,0.0438,0.0475,0.0598,0.0596,0.0589,0.0572,0.0618,0.0611,0.0604,0.0679,0.0679,0.0679,0,0,-0.0395,-0.0376,-0.0378,-0.0352,-0.0315,-0.0274,-0.0265,-0.019,-0.0148,-0.0066,0.0011,0.0093,0.028,0.0349,0.0417,0.0436,0.0537,0.0506,0.0464,0.0506,0.0499,0.0494,0.0531,0.053,0.0532,0.0532,0.0532,0,-0.0402,-0.0399,-0.0369,-0.0364,-0.0349,-0.0285,-0.0277,-0.0229,-0.0127,-0.0096,-0.0051,0.0148,0.0255,0.0346,0.0351,0.0419,0.0461,0.0477,0.0492,0.0488,0.0484,0.0524,0.0524,0.0526,0.0527,0.0527,0.0528,0,-0.042,-0.0414,-0.0417,-0.0391,-0.0367,-0.0356,-0.0305,-0.0265,-0.0199,-0.0138,-0.0049,0.0064,0.0185,0.0245,0.0313,0.0364,0.0405,0.0447,0.0496,0.0469,0.0514,0.0516,0.0517,0.052,0.0521,0.0523,0,0,-0.0443,-0.0434,-0.0431,-0.043,-0.0387,-0.0371,-0.034,-0.0292,-0.0261,-0.0167,-0.0112,0.0013,0.0071,0.0146,0.0241,0.0293,0.0306,0.0367,0.0372,0.0375,0.0401,0.0415,0.042,0.0357,0.0357,0.0357,0.0439,0,-0.0462,-0.0476,-0.0458,-0.0453,-0.0455,-0.041,-0.0384,-0.0333,-0.0262,-0.0193,-0.0105,-0.0017,0.0039,0.0103,0.015,0.0283,0.0309,0.028,0.0452,0.0457,0.0448,0.0421,0.0406,0.0477,0.0442,0.0443,0.0443,0,-0.0481,-0.0491,-0.0505,-0.0496,-0.0493,-0.0478,-0.0437,-0.0405,-0.0317,-0.026,-0.0184,-0.0096,-0.0005,0.0039,0.0187,0.0175,0.0256,0.0339,0.0346,0.0399,0.0475,0.0504,0.0484,0.0448,0.0448,0.0448,0.0447,0,-0.0517,-0.052,-0.054,-0.0536,-0.0513,-0.0512,-0.0493,-0.0422,-0.0397,-0.0304,-0.0252,-0.0149,-0.0056,0.0031,0.0197,0.0203,0.0356,0.0393,0.046,0.0463,0.0502,0.0508,0.0439,0.0439,0.0439,0.0439,0.0438,0,-0.0547,-0.0558,-0.0563,-0.0573,-0.0592,-0.0556,-0.0551,-0.0512,-0.0446,-0.04,-0.0296,-0.0215,-0.0051,0.0071,0.0177,0.0333,0.0336,0.043,0.0478,0.046,0.0461,0.0484,0.0488,0.0442,0.0441,0.044,0.044,0,-0.0574,-0.0578,-0.0604,-0.0607,-0.0611,-0.0623,-0.061,-0.06,-0.0525,-0.0459,-0.0433,-0.0247,-0.0072,0.0067,0.0261,0.0334,0.0462,0.0501,0.0464,0.0504,0.0542,0.0539,0.0583,0.0584,0.0585,0.0585,0.0586,0,-0.0588,-0.0606,-0.0641,-0.0666,-0.0672,-0.0687,-0.0697,-0.0649,-0.0628,-0.0465,-0.043,-0.0238,-0.0073,0.0199,0.0351,0.0505,0.0502,0.0561,0.0548,0.051,0.0553,0.0549,0.0545,0.0559,0.0559,0.056,0.056,0,-0.0616,-0.0633,-0.0661,-0.0716,-0.0745,-0.0773,-0.0774,-0.0771,-0.0686,-0.0605,-0.0409,-0.0255,0.0042,0.0263,0.0438,0.0518,0.0534,0.0571,0.0559,0.0516,0.0492,0.0533,0.0529,0.0562,0.0562,0.0562,0.0562,0.0562,-0.0639,-0.0672,-0.0717,-0.0766,-0.0803,-0.0836,-0.0851,-0.0829,-0.0781,-0.0626,-0.0423,-0.0163,0.0043,0.0332,0.0462,0.058,0.0588,0.0608,0.0605,0.0603,0.0576,0.0554,0.0631,0.0632,0.0632,0.0632,0.0632,0,-0.0672,-0.0711,-0.0762,-0.0824,-0.0872,-0.0877,-0.0884,-0.0873,-0.0814,-0.0606,-0.0395,-0.014,0.0105,0.0313,0.0519,0.0626,0.0608,0.0625,0.0591,0.0589,0.0587,0.0557,0.0608,0.0609,0.0609,0.0609,0,0,-0.0693,-0.0753,-0.0782,-0.0869,-0.0908,-0.0951,-0.0953,-0.0904,-0.0764,-0.0575,-0.0367,-0.0112,0.0161,0.0268,0.0413,0.0542,0.0529,0.0536,0.0547,0.049,0.0487,0.0573,0.0526,0,0,0,0,0]}],[{"header":{"parameterUnit":"m.s-1","parameterCategory":2,"la1":30.2991,"la2":30.254,"lo1":-89.0895,"lo2":-89.0444,"dy":0.0017,"dx":0.0017,"nx":28,"ny":28,"refTime":"2025-08-15T09:00:00:Z","depth":"4","parameterNumber":2,"parameterNumberName":"U-component_of_CURRENTS"},"data":[0,0,0,0,0,0,0,0,0,0,0,0,0,0,0,0,0,0,0,0,0,0,0,0,0,0,0,0,0,0,0,0,0,0,0,0,0,0,0,0,0,0,0,0,0,0,0,0,0,0,0,0,0,0,0,0,0,0,-0.1212,-0.1212,0,-0.1256,-0.1256,-0.1257,-0.1278,-0.1278,-0.1278,-0.1278,-0.1337,-0.1339,-0.134,0,0,0,0,0,0,0,0,0,0,0,0,0,-0.1164,-0.1164,-0.1212,-0.1212,-0.1213,-0.1256,-0.1256,-0.1257,-0.1278,-0.1278,-0.1278,-0.1278,-0.1337,-0.1339,-0.1341,0,0,0,0,0,0,0,0,0,0,0,0,0,-0.1193,-0.1164,-0.1212,-0.1229,-0.1231,-0.1256,-0.1256,-0.1257,-0.1278,-0.1278,-0.1278,-0.1278,-0.1336,-0.1339,-0.1341,-0.1355,0,0,-0.1348,-0.1349,0,0,0,0,0,0,0,0,-0.1192,-0.1195,-0.1226,-0.1228,-0.123,-0.1262,-0.1261,-0.1291,-0.1278,-0.126,-0.1278,-0.1278,-0.1314,-0.1318,-0.1325,-0.1358,-0.136,-0.1348,-0.135,-0.1351,-0.1351,0,0,0,0,0,0,0,-0.1189,-0.1193,-0.1229,-0.1226,-0.1229,-0.124,-0.1244,-0.1267,-0.1286,-0.1261,-0.1263,-0.1268,-0.1315,-0.1323,-0.1327,-0.1361,-0.1348,-0.135,-0.1352,-0.1353,-0.1426,-0.1427,0,0,0,0,0,0,-0.1184,-0.1191,-0.1227,-0.123,-0.1211,-0.1241,-0.1246,-0.1251,-0.1286,-0.1291,-0.1268,-0.1269,-0.1319,-0.1324,-0.1329,-0.1379,-0.1351,-0.1353,-0.1354,-0.1426,-0.1426,-0.1427,0,0,0,0,0,0,-0.1183,-0.1187,-0.1226,-0.1212,-0.1218,-0.1242,-0.1248,-0.1252,-0.1278,-0.1291,-0.1296,-0.1292,-0.1319,-0.1326,-0.1359,-0.138,-0.1354,-0.1356,-0.1425,-0.1426,-0.1427,-0.1458,0,0,0,0,0,0,-0.1181,-0.1186,-0.1199,-0.1212,-0.1218,-0.1255,-0.1248,-0.1253,-0.128,-0.1282,-0.1312,-0.1317,-0.132,-0.1356,-0.1362,-0.1383,-0.1358,-0.1424,-0.1425,-0.1426,-0.1457,-0.146,-0.1463,0,0,0,0,0,-0.1179,-0.1198,-0.1199,-0.1204,-0.1231,-0.1256,-0.1262,-0.1278,-0.1281,-0.13,-0.1314,-0.1317,-0.1366,-0.1358,-0.1365,-0.1388,-0.1424,-0.1425,-0.1426,-0.1455,-0.1459,-0.1463,0,0,0,0,0,0,-0.1187,-0.1202,-0.1203,-0.1226,-0.1245,-0.126,-0.1283,-0.129,-0.1316,-0.1322,-0.1329,-0.1335,-0.137,-0.1374,-0.1365,-0.1409,-0.1394,-0.1396,-0.1413,-0.1418,-0.1421,-0.1427,-0.136,0,0,0,0,0,-0.1192,-0.1209,-0.1223,-0.1244,-0.1255,-0.1271,-0.1287,-0.1298,-0.1317,-0.1329,-0.1344,-0.136,-0.1378,-0.1394,-0.1409,-0.144,-0.1435,-0.1456,-0.146,-0.1462,-0.1471,-0.1481,-0.1486,-0.1431,-0.1431,-0.1431,0,0,-0.1201,-0.1212,-0.1223,-0.1247,-0.1263,-0.1278,-0.1282,-0.1313,-0.133,-0.1332,-0.1366,-0.1377,-0.1389,-0.1418,-0.1434,-0.1427,-0.1472,-0.1464,-0.1466,-0.1474,-0.1483,-0.1488,-0.1493,-0.1432,-0.1432,-0.1432,0,0,-0.1214,-0.1238,-0.1248,-0.1267,-0.1294,-0.1304,-0.1316,-0.1339,-0.1359,-0.139,-0.1391,-0.1414,-0.1445,-0.1453,-0.1461,-0.1493,-0.1488,-0.15,-0.1527,-0.1536,-0.1541,-0.1545,-0.1531,-0.1534,-0.1502,-0.1502,-0.1503,0,-0.1223,-0.1241,-0.1259,-0.1273,-0.1298,-0.1314,-0.1336,-0.1354,-0.1385,-0.1412,-0.1406,-0.1452,-0.1459,-0.1494,-0.15,-0.1502,-0.15,-0.1512,-0.1541,-0.1545,-0.1549,-0.1533,-0.1536,-0.1504,-0.1504,-0.1504,-0.1504,0,-0.1232,-0.1258,-0.1273,-0.1292,-0.1319,-0.135,-0.1373,-0.1405,-0.1428,-0.1445,-0.1494,-0.1499,-0.1528,-0.1529,-0.1527,-0.1561,-0.1548,-0.1543,-0.1532,-0.1557,-0.1538,-0.154,-0.1507,-0.1506,-0.1505,-0.1505,0,0,-0.122,-0.1269,-0.1276,-0.1299,-0.1341,-0.1364,-0.1405,-0.1452,-0.1486,-0.1511,-0.1554,-0.1576,-0.1586,-0.1595,-0.1593,-0.1598,-0.1612,-0.1587,-0.1587,-0.1574,-0.1622,-0.1498,-0.1488,-0.1619,-0.162,-0.1621,-0.1593,0,-0.1225,-0.126,-0.1288,-0.1333,-0.1356,-0.1404,-0.1442,-0.1489,-0.1525,-0.1566,-0.1587,-0.1618,-0.1608,-0.1623,-0.1631,-0.1619,-0.1622,-0.1619,-0.16,-0.1599,-0.1487,-0.1488,-0.1624,-0.1595,-0.1595,-0.1595,-0.1596,0,-0.1215,-0.1248,-0.1293,-0.1368,-0.1385,-0.1416,-0.1499,-0.1535,-0.1596,-0.1628,-0.1667,-0.1677,-0.1697,-0.1677,-0.1677,-0.1679,-0.166,-0.1641,-0.164,-0.1517,-0.1478,-0.1568,-0.1599,-0.1599,-0.1599,-0.1598,-0.1598,0,-0.1183,-0.1252,-0.1296,-0.132,-0.1397,-0.1443,-0.1489,-0.1558,-0.1598,-0.1662,-0.1688,-0.1722,-0.1727,-0.1724,-0.1685,-0.1692,-0.1666,-0.1668,-0.1537,-0.1527,-0.1636,-0.1632,-0.1671,-0.1671,-0.1671,-0.1671,-0.1671,0,-0.1163,-0.12,-0.129,-0.131,-0.1378,-0.1438,-0.1507,-0.156,-0.1628,-0.1651,-0.1713,-0.1712,-0.1741,-0.1726,-0.1699,-0.1608,-0.1678,-0.1537,-0.1513,-0.1646,-0.1644,-0.1636,-0.1632,-0.167,-0.167,-0.167,-0.167,0,-0.1104,-0.1162,-0.1219,-0.1321,-0.1357,-0.1403,-0.1505,-0.1537,-0.1618,-0.1645,-0.1663,-0.1711,-0.1678,-0.1681,-0.1655,-0.1599,-0.1541,-0.1495,-0.1621,-0.1605,-0.1396,-0.1394,-0.1351,-0.1346,-0.1342,-0.1339,-0.1336,0,-0.1072,-0.1094,-0.1211,-0.1245,-0.1293,-0.1373,-0.1413,-0.1515,-0.1533,-0.1609,-0.1594,-0.1611,-0.1618,-0.1481,-0.1505,-0.1445,-0.1428,-0.1399,-0.1414,-0.1382,-0.1364,-0.1369,-0.1372,-0.133,-0.1329,-0.1328,-0.1327,0,-0.1012,-0.1062,-0.1107,-0.1176,-0.123,-0.1287,-0.1346,-0.1353,-0.1437,-0.1529,-0.1476,-0.1452,-0.1412,-0.1381,-0.1343,-0.1304,-0.142,-0.1359,-0.1367,-0.1381,-0.1357,-0.1344,-0.1352,-0.1313,-0.1315,-0.1317,-0.1317,0,-0.0968,-0.0982,-0.1039,-0.1088,-0.1151,-0.1159,-0.1219,-0.1224,-0.1261,-0.1343,-0.1311,-0.1329,-0.1377,-0.1304,-0.1264,-0.1219,-0.1206,-0.1174,-0.1192,-0.1208,-0.1173,-0.1122,-0.098,0,0,0,0,0,-0.0915,-0.0906,-0.0943,-0.0979,-0.1033,-0.106,-0.1145,-0.1199,-0.1279,-0.1199,-0.1254,-0.1204,-0.1151,-0.1167,-0.1088,-0.1201,-0.1214,-0.1105,-0.1189,-0.1239,-0.1254,-0.1227,0,0,0,0,0,0,-0.0874,-0.0897,-0.0902,-0.0866,-0.0861,-0.0898,-0.0943,-0.1007,-0.0976,-0.1065,-0.104,-0.1113,-0.1079,-0.1155,-0.105,-0.1055,-0.1081,-0.113,-0.1126,-0.123,-0.1244,-0.1256,-0.1234,0,0,0,0,0]},{"header":{"parameterUnit":"m.s-1","parameterCategory":2,"la1":30.2991,"la2":30.254,"lo1":-89.0895,"lo2":-89.0444,"dy":0.0017,"dx":0.0017,"nx":28,"ny":28,"refTime":"2025-08-15T09:00:00:Z","depth":"4","parameterNumber":3,"parameterNumberName":"V-component_of_CURRENTS"},"data":[0,0,0,0,0,0,0,0,0,0,0,0,0,0,0,0,0,0,0,0,0,0,0,0,0,0,0,0,0,0,0,0,0,0,0,0,0,0,0,0,0,0,0,0,0,0,0,0,0,0,0,0,0,0,0,0,0,0,-0.0289,-0.0288,0,-0.0267,-0.0267,-0.0266,-0.0247,-0.0247,-0.0247,-0.0247,-0.0215,-0.0214,-0.0214,0,0,0,0,0,0,0,0,0,0,0,0,0,-0.031,-0.0309,-0.0289,-0.0288,-0.0288,-0.0267,-0.0267,-0.0266,-0.0247,-0.0247,-0.0247,-0.0246,-0.0215,-0.0214,-0.0214,0,0,0,0,0,0,0,0,0,0,0,0,0,-0.0296,-0.0309,-0.0289,-0.0276,-0.0274,-0.0267,-0.0267,-0.0266,-0.0247,-0.0247,-0.0247,-0.0246,-0.0215,-0.0214,-0.0213,-0.0215,0,0,-0.0211,-0.021,0,0,0,0,0,0,0,0,-0.0297,-0.0295,-0.0278,-0.0277,-0.0275,-0.0259,-0.0262,-0.0249,-0.0247,-0.0258,-0.0247,-0.0246,-0.0229,-0.0227,-0.0224,-0.0214,-0.0212,-0.021,-0.021,-0.021,-0.0209,0,0,0,0,0,0,0,-0.0298,-0.0296,-0.028,-0.0278,-0.0276,-0.027,-0.0267,-0.026,-0.0246,-0.0257,-0.0255,-0.0253,-0.0228,-0.0225,-0.0223,-0.0212,-0.0211,-0.021,-0.0209,-0.0209,-0.0216,-0.0217,0,0,0,0,0,0,-0.03,-0.0297,-0.0281,-0.028,-0.0285,-0.027,-0.0267,-0.0265,-0.0246,-0.0243,-0.0253,-0.0252,-0.0227,-0.0224,-0.0222,-0.0218,-0.021,-0.0209,-0.0208,-0.0215,-0.0216,-0.0217,0,0,0,0,0,0,-0.0301,-0.0299,-0.0282,-0.0287,-0.0285,-0.027,-0.0267,-0.0265,-0.0264,-0.0243,-0.024,-0.0256,-0.0226,-0.0223,-0.0222,-0.0217,-0.0208,-0.0207,-0.0214,-0.0216,-0.0217,-0.0214,0,0,0,0,0,0,-0.0302,-0.03,-0.0303,-0.0288,-0.0285,-0.0284,-0.0268,-0.0264,-0.0263,-0.0261,-0.0244,-0.0241,-0.0226,-0.0224,-0.0221,-0.0216,-0.0207,-0.0214,-0.0215,-0.0216,-0.0214,-0.0215,-0.0217,0,0,0,0,0,-0.0303,-0.0307,-0.0304,-0.0302,-0.0289,-0.0285,-0.0283,-0.0271,-0.0263,-0.0269,-0.0257,-0.0241,-0.0231,-0.0224,-0.0221,-0.0215,-0.0213,-0.0215,-0.0216,-0.0213,-0.0215,-0.0217,0,0,0,0,0,0,-0.0311,-0.0305,-0.0301,-0.0301,-0.0298,-0.0282,-0.0283,-0.0276,-0.0272,-0.0269,-0.0249,-0.0246,-0.0242,-0.0237,-0.023,-0.0224,-0.022,-0.0221,-0.0219,-0.022,-0.0222,-0.0204,-0.0206,0,0,0,0,0,-0.0317,-0.0323,-0.0312,-0.0314,-0.0312,-0.03,-0.0298,-0.0291,-0.0282,-0.028,-0.0268,-0.0259,-0.0247,-0.0241,-0.0235,-0.0232,-0.0193,-0.0229,-0.0231,-0.0232,-0.0218,-0.014,-0.0131,-0.0223,-0.0223,-0.0223,0,0,-0.032,-0.0317,-0.032,-0.0317,-0.0311,-0.0315,-0.0298,-0.0298,-0.0298,-0.0277,-0.0277,-0.0264,-0.0249,-0.0243,-0.0241,-0.0237,-0.0194,-0.0234,-0.0235,-0.022,-0.014,-0.0131,-0.0122,-0.0224,-0.0224,-0.0223,0,0,-0.0332,-0.0328,-0.0339,-0.0339,-0.0336,-0.0328,-0.0331,-0.0322,-0.0315,-0.0317,-0.0296,-0.0276,-0.0278,-0.0248,-0.0237,-0.0246,-0.0205,-0.0258,-0.0246,-0.0171,-0.0161,-0.0152,-0.0114,-0.0101,-0.0257,-0.0257,-0.0257,0,-0.0338,-0.0348,-0.0342,-0.0351,-0.0349,-0.0337,-0.0345,-0.0338,-0.033,-0.0313,-0.0322,-0.028,-0.0272,-0.0229,-0.0238,-0.0244,-0.0209,-0.0235,-0.0168,-0.0158,-0.0149,-0.0112,-0.0098,-0.0258,-0.0258,-0.0258,-0.0257,0,-0.0358,-0.0367,-0.0371,-0.0379,-0.0379,-0.0383,-0.0372,-0.0367,-0.036,-0.034,-0.0305,-0.0284,-0.025,-0.0251,-0.025,-0.0187,-0.0187,-0.0176,-0.0153,-0.0139,-0.0102,-0.0088,-0.0258,-0.0258,-0.0258,-0.0258,0,0,-0.0367,-0.0384,-0.0387,-0.0396,-0.0393,-0.0396,-0.0389,-0.0369,-0.0348,-0.0332,-0.0291,-0.0268,-0.0236,-0.0222,-0.0203,-0.0145,-0.0068,-0.014,-0.0136,-0.0085,0.0079,0.003,0.0041,-0.0037,-0.0034,-0.0032,0.0072,0,-0.0385,-0.0413,-0.0411,-0.0431,-0.0441,-0.0422,-0.0415,-0.0392,-0.0364,-0.0323,-0.0268,-0.0235,-0.023,-0.0212,-0.0147,-0.0087,-0.0027,-0.0098,0.0044,0.0048,0.0018,0.0058,-0.0023,0.0083,0.0086,0.0089,0.009,0,-0.0405,-0.0422,-0.0448,-0.0453,-0.0454,-0.0462,-0.0432,-0.0423,-0.0353,-0.0325,-0.0257,-0.0216,-0.0134,-0.0136,0.001,-0.0035,0.0023,0.0071,0.0077,0.0047,0.0027,0.0069,0.0117,0.0115,0.0113,0.0111,0.0109,0,-0.0421,-0.0444,-0.0468,-0.0473,-0.0477,-0.0476,-0.0473,-0.0421,-0.0405,-0.0319,-0.0287,-0.0176,-0.0126,-0.0019,0.006,0.0048,0.0218,0.0218,0.0234,0.0229,0.0243,0.0233,0.034,0.0339,0.0339,0.0339,0.0339,0,-0.0438,-0.0457,-0.0483,-0.0498,-0.0518,-0.0503,-0.05,-0.047,-0.0414,-0.038,-0.029,-0.0234,-0.0091,0.001,0.0088,0.0198,0.0247,0.0252,0.0268,0.0233,0.0221,0.0252,0.024,0.0343,0.0342,0.0341,0.034,0,-0.0452,-0.0469,-0.0503,-0.0522,-0.0532,-0.0547,-0.055,-0.0539,-0.0476,-0.0424,-0.0401,-0.0261,-0.0124,0.0001,0.0175,0.0221,0.0331,0.0355,0.0291,0.0297,0.0286,0.0273,0.0404,0.0404,0.0403,0.0403,0.0403,0,-0.046,-0.0482,-0.0534,-0.0563,-0.058,-0.0602,-0.0617,-0.058,-0.0562,-0.0445,-0.0419,-0.0272,-0.0175,0.0039,0.0168,0.033,0.0338,0.0385,0.0359,0.0299,0.03,0.0288,0.0276,0.0402,0.0402,0.0402,0.0402,0,-0.0477,-0.0503,-0.0535,-0.0601,-0.0639,-0.0671,-0.0683,-0.0674,-0.0611,-0.0555,-0.0425,-0.0296,-0.0137,0.0032,0.0152,0.0264,0.0354,0.0381,0.0383,0.0359,0.0297,0.0296,0.0285,0.04,0.04,0.04,0.04,0,-0.0492,-0.0525,-0.0579,-0.063,-0.0685,-0.072,-0.0723,-0.0691,-0.0662,-0.053,-0.0488,-0.0298,-0.0176,-0.0002,0.011,0.0214,0.024,0.0255,0.0264,0.0267,0.0185,0.0084,0.0153,0,0,0,0,0,-0.0505,-0.0549,-0.0603,-0.0668,-0.0722,-0.075,-0.0757,-0.0744,-0.0682,-0.0605,-0.0543,-0.0396,-0.0184,-0.0075,0.0023,0.0086,0.0242,0.0201,0.0258,0.0391,0.0393,0.0314,0,0,0,0,0,0,-0.0521,-0.0577,-0.0607,-0.0685,-0.0731,-0.0786,-0.0792,-0.0752,-0.0698,-0.0613,-0.0496,-0.0402,-0.0195,-0.0244,0.0018,0.0055,0.0096,0.0314,0.0315,0.039,0.0392,0.0393,0.0313,0,0,0,0,0]}]]